CCA8513 ZSHC-ZYHB

Flight info

Callsign CCA8513
Flight time 2h 56m
Altitude 35100
Route SUP91D SUPAR B221 GOVNI V140 IDNIK V141 ALDAP B221 XDX/K0830S1070 DCT URBAD/K0835S1130 W172 IGDEG W173 NIXEP W8 DOBGA W202 UDETI A588 NULRA W206 MAGBI W656 ISLUK W629 LARUN LAR08A
Aircraft A320/M-SDE3FGHIRWY/LB1

Departure

Time 2026-04-27 11:30
Airport Hangzhou Xiaoshan International Airport (ZSHC)

Arrival

Time 2026-04-27 14:26
Airport Harbin Taiping International Airport (ZYHB)
Time Latitude Longitude Altitude Speed Heading
2026-04-27 10:54 30.23805 120.42074 32 ft 0 kts 230°
2026-04-27 11:18 30.23814 120.42085 32 ft 2 kts 231°
2026-04-27 11:18 30.23824 120.42100 32 ft 2 kts 231°
2026-04-27 11:19 30.23834 120.42115 32 ft 2 kts 234°
2026-04-27 11:19 30.23844 120.42131 31 ft 2 kts 247°
2026-04-27 11:19 30.23849 120.42149 29 ft 2 kts 266°
2026-04-27 11:19 30.23845 120.42168 31 ft 2 kts 308°
2026-04-27 11:20 30.23834 120.42182 32 ft 2 kts 323°
2026-04-27 11:20 30.23824 120.42190 32 ft 1 kts 332°
2026-04-27 11:20 30.23823 120.42190 30 ft 0 kts 333°
2026-04-27 11:22 30.23830 120.42186 30 ft 2 kts 333°
2026-04-27 11:22 30.23849 120.42175 31 ft 4 kts 333°
2026-04-27 11:23 30.23881 120.42157 31 ft 6 kts 333°
2026-04-27 11:23 30.23924 120.42132 32 ft 8 kts 333°
2026-04-27 11:23 30.23973 120.42091 32 ft 10 kts 301°
2026-04-27 11:23 30.23962 120.42032 30 ft 8 kts 243°
2026-04-27 11:24 30.23933 120.41967 32 ft 10 kts 242°
2026-04-27 11:24 30.23898 120.41889 32 ft 12 kts 242°
2026-04-27 11:24 30.23865 120.41811 32 ft 8 kts 253°
2026-04-27 11:24 30.23895 120.41755 31 ft 10 kts 330°
2026-04-27 11:25 30.23962 120.41716 30 ft 9 kts 333°
2026-04-27 11:25 30.23989 120.41652 32 ft 10 kts 261°
2026-04-27 11:25 30.23956 120.41570 32 ft 12 kts 242°
2026-04-27 11:25 30.23914 120.41476 32 ft 14 kts 243°
2026-04-27 11:26 30.23867 120.41370 32 ft 16 kts 243°
2026-04-27 11:26 30.23814 120.41250 32 ft 18 kts 243°
2026-04-27 11:26 30.23767 120.41136 32 ft 10 kts 258°
2026-04-27 11:26 30.23787 120.41099 31 ft 0 kts 330°
2026-04-27 11:27 30.23792 120.41096 32 ft 1 kts 330°
2026-04-27 11:27 30.23803 120.41088 31 ft 2 kts 330°
2026-04-27 11:27 30.23820 120.41078 33 ft 3 kts 332°
2026-04-27 11:27 30.23840 120.41065 33 ft 4 kts 332°
2026-04-27 11:28 30.23865 120.41051 34 ft 4 kts 334°
2026-04-27 11:28 30.23898 120.41040 34 ft 6 kts
2026-04-27 11:28 30.23932 120.41080 33 ft 9 kts 64°
2026-04-27 11:28 30.23940 120.41100 31 ft 2 kts 64°
2026-04-27 11:29 30.23955 120.41135 32 ft 15 kts 63°
2026-04-27 11:29 30.24118 120.41501 31 ft 84 kts 63°
2026-04-27 11:29 30.24469 120.42298 32 ft 136 kts 63°
2026-04-27 11:29 30.24964 120.43414 123 ft 167 kts 63°
2026-04-27 11:30 30.25494 120.44601 670 ft 166 kts 63°
2026-04-27 11:30 30.26028 120.45793 1225 ft 168 kts 62°
2026-04-27 11:30 30.26567 120.46990 1798 ft 168 kts 62°
2026-04-27 11:30 30.27103 120.48194 2248 ft 169 kts 62°
2026-04-27 11:31 30.27637 120.49405 2745 ft 169 kts 62°
2026-04-27 11:31 30.28162 120.50602 3203 ft 171 kts 62°
2026-04-27 11:31 30.28740 120.51911 3427 ft 192 kts 62°
2026-04-27 11:31 30.29374 120.53345 3612 ft 215 kts 62°
2026-04-27 11:32 30.30106 120.55001 3865 ft 240 kts 62°
2026-04-27 11:32 30.30891 120.56783 4230 ft 263 kts 62°
2026-04-27 11:32 30.31730 120.58708 4913 ft 272 kts 65°
2026-04-27 11:32 30.32139 120.60857 5664 ft 279 kts 92°
2026-04-27 11:33 30.31626 120.63053 6434 ft 285 kts 121°
2026-04-27 11:33 30.30273 120.64706 7179 ft 287 kts 149°
2026-04-27 11:33 30.28529 120.65767 7971 ft 288 kts 155°
2026-04-27 11:33 30.26706 120.66821 8787 ft 291 kts 155°
2026-04-27 11:34 30.24913 120.67859 9535 ft 295 kts 155°
2026-04-27 11:34 30.23069 120.68929 9796 ft 297 kts 155°
2026-04-27 11:34 30.21227 120.70001 9846 ft 297 kts 155°
2026-04-27 11:34 30.19495 120.71320 10108 ft 303 kts 138°
2026-04-27 11:35 30.18176 120.73316 10368 ft 327 kts 115°
2026-04-27 11:35 30.17674 120.75952 10514 ft 351 kts 88°
2026-04-27 11:35 30.18035 120.78810 10779 ft 367 kts 79°
2026-04-27 11:35 30.18548 120.81728 11310 ft 374 kts 78°
2026-04-27 11:36 30.19099 120.84692 11896 ft 380 kts 77°
2026-04-27 11:36 30.19659 120.87699 12469 ft 385 kts 78°
2026-04-27 11:36 30.20217 120.90752 13034 ft 391 kts 78°
2026-04-27 11:36 30.20770 120.93854 13600 ft 397 kts 78°
2026-04-27 11:37 30.21319 120.97003 14130 ft 402 kts 78°
2026-04-27 11:37 30.21867 121.00185 14667 ft 406 kts 78°
2026-04-27 11:37 30.22421 121.03395 15193 ft 409 kts 78°
2026-04-27 11:37 30.22982 121.06641 15715 ft 413 kts 77°
2026-04-27 11:38 30.23551 121.09912 16232 ft 417 kts 77°
2026-04-27 11:38 30.24126 121.13216 16768 ft 421 kts 77°
2026-04-27 11:38 30.24705 121.16550 17314 ft 425 kts 77°
2026-04-27 11:38 30.25350 121.19903 17851 ft 428 kts 72°
2026-04-27 11:39 30.26404 121.23135 18373 ft 430 kts 62°
2026-04-27 11:39 30.27900 121.26121 18871 ft 431 kts 53°
2026-04-27 11:39 30.29561 121.29019 19412 ft 434 kts 53°
2026-04-27 11:39 30.31228 121.31945 19948 ft 436 kts 53°
2026-04-27 11:40 30.32896 121.34890 20475 ft 439 kts 53°
2026-04-27 11:40 30.34569 121.37859 20967 ft 442 kts 53°
2026-04-27 11:40 30.36404 121.40709 21432 ft 441 kts 45°
2026-04-27 11:40 30.38429 121.43391 21887 ft 444 kts 45°
2026-04-27 11:41 30.40471 121.46081 22338 ft 446 kts 45°
2026-04-27 11:41 30.42577 121.48723 22772 ft 446 kts 39°
2026-04-27 11:41 30.44975 121.50984 23194 ft 443 kts 30°
2026-04-27 11:41 30.47582 121.52886 23592 ft 444 kts 27°
2026-04-27 11:42 30.50217 121.54781 23940 ft 446 kts 27°
2026-04-27 11:42 30.52859 121.56691 24278 ft 449 kts 27°
2026-04-27 11:42 30.55512 121.58617 24606 ft 451 kts 27°
2026-04-27 11:42 30.58184 121.60557 24938 ft 454 kts 27°
2026-04-27 11:43 30.60864 121.62501 25263 ft 456 kts 27°
2026-04-27 11:43 30.63565 121.64458 25586 ft 458 kts 27°
2026-04-27 11:43 30.66273 121.66419 25904 ft 461 kts 27°
2026-04-27 11:43 30.69002 121.68396 26214 ft 463 kts 27°
2026-04-27 11:44 30.71740 121.70384 26540 ft 465 kts 27°
2026-04-27 11:44 30.74495 121.72383 26853 ft 468 kts 27°
2026-04-27 11:44 30.77262 121.74392 27156 ft 470 kts 27°
2026-04-27 11:44 30.80044 121.76412 27464 ft 472 kts 27°
2026-04-27 11:45 30.82836 121.78440 27821 ft 473 kts 26°
2026-04-27 11:45 30.84684 121.79785 28121 ft 472 kts 26°
2026-04-27 11:45 30.87459 121.81810 28560 ft 472 kts 27°
2026-04-27 11:45 30.91176 121.84526 29146 ft 471 kts 26°
2026-04-27 11:46 30.93013 121.85868 29444 ft 471 kts 26°
2026-04-27 11:46 30.96725 121.88573 30023 ft 470 kts 26°
2026-04-27 11:46 30.98559 121.89909 30271 ft 470 kts 26°
2026-04-27 11:46 31.01328 121.91930 30647 ft 469 kts 26°
2026-04-27 11:47 31.04093 121.93953 31021 ft 469 kts 26°
2026-04-27 11:47 31.06853 121.95975 31402 ft 468 kts 26°
2026-04-27 11:47 31.09610 121.97997 31771 ft 468 kts 26°
2026-04-27 11:47 31.12366 122.00019 32147 ft 468 kts 25°
2026-04-27 11:48 31.15122 122.02044 32540 ft 467 kts 25°
2026-04-27 11:48 31.17870 122.04065 32936 ft 466 kts 25°
2026-04-27 11:48 31.20615 122.06082 33320 ft 466 kts 25°
2026-04-27 11:48 31.24248 122.08749 33841 ft 466 kts 25°
2026-04-27 11:49 31.26101 122.10111 34081 ft 465 kts 25°
2026-04-27 11:49 31.28840 122.12128 34422 ft 465 kts 25°
2026-04-27 11:49 31.31574 122.14145 34730 ft 464 kts 25°
2026-04-27 11:49 31.34300 122.16157 34995 ft 465 kts 25°
2026-04-27 11:50 31.39818 122.20219 35071 ft 474 kts 25°
2026-04-27 11:50 31.45418 122.24353 35072 ft 477 kts 25°
2026-04-27 11:51 31.51027 122.28516 35060 ft 477 kts 25°
2026-04-27 11:52 31.59723 122.33873 35072 ft 459 kts
2026-04-27 11:52 31.62822 122.34525 35069 ft 448 kts 356°
2026-04-27 11:52 31.65897 122.34550 35072 ft 437 kts 347°
2026-04-27 11:53 31.71649 122.32888 35075 ft 420 kts 331°
2026-04-27 11:53 31.77092 122.30357 35072 ft 421 kts 330°
2026-04-27 11:54 31.82461 122.27641 35077 ft 420 kts 329°
2026-04-27 11:54 31.87876 122.24999 35079 ft 423 kts 331°
2026-04-27 11:55 31.93389 122.22547 35087 ft 424 kts 332°
2026-04-27 11:55 31.98917 122.20118 35085 ft 424 kts 331°
2026-04-27 11:56 32.04394 122.17646 35092 ft 424 kts 331°
2026-04-27 11:56 32.09896 122.15133 35088 ft 424 kts 331°
2026-04-27 11:57 32.15401 122.12628 35094 ft 424 kts 331°
2026-04-27 11:57 32.20917 122.10125 35097 ft 424 kts 331°
2026-04-27 11:58 32.26428 122.07613 35099 ft 425 kts 330°
2026-04-27 11:58 32.31940 122.05106 35105 ft 425 kts 330°
2026-04-27 11:59 32.37451 122.02592 35106 ft 424 kts 330°
2026-04-27 11:59 32.42956 122.00071 35106 ft 424 kts 330°
2026-04-27 12:00 32.48457 121.97558 35114 ft 424 kts 330°
2026-04-27 12:00 32.53957 121.95031 35115 ft 423 kts 330°
2026-04-27 12:01 32.59448 121.92511 35112 ft 423 kts 330°
2026-04-27 12:01 32.64940 121.89987 35091 ft 423 kts 330°
2026-04-27 12:02 32.70425 121.87470 35103 ft 423 kts 330°
2026-04-27 12:02 32.75910 121.84951 35112 ft 423 kts 330°
2026-04-27 12:03 32.81394 121.82421 35116 ft 422 kts 330°
2026-04-27 12:03 32.86871 121.79889 35121 ft 422 kts 330°
2026-04-27 12:04 32.92338 121.77362 35120 ft 421 kts 329°
2026-04-27 12:04 32.97797 121.74838 35123 ft 420 kts 329°
2026-04-27 12:05 33.03241 121.72311 35118 ft 420 kts 329°
2026-04-27 12:05 33.08682 121.69782 35116 ft 419 kts 329°
2026-04-27 12:06 33.14111 121.67256 35116 ft 419 kts 329°
2026-04-27 12:06 33.19535 121.64727 35113 ft 418 kts 329°
2026-04-27 12:07 33.24958 121.62199 35116 ft 418 kts 329°
2026-04-27 12:07 33.30319 121.59555 35111 ft 416 kts 327°
2026-04-27 12:08 33.35608 121.56784 35111 ft 415 kts 327°
2026-04-27 12:08 33.40898 121.54017 35112 ft 415 kts 327°
2026-04-27 12:09 33.46204 121.51276 35113 ft 415 kts 327°
2026-04-27 12:09 33.51508 121.48555 35115 ft 415 kts 327°
2026-04-27 12:10 33.56807 121.45828 35114 ft 414 kts 327°
2026-04-27 12:10 33.62097 121.43095 35118 ft 414 kts 327°
2026-04-27 12:11 33.67379 121.40352 35125 ft 414 kts 327°
2026-04-27 12:11 33.72729 121.37745 35118 ft 416 kts 328°
2026-04-27 12:12 33.78126 121.35251 35123 ft 416 kts 328°
2026-04-27 12:12 33.83515 121.32752 35127 ft 415 kts 328°
2026-04-27 12:13 33.88880 121.30221 35126 ft 414 kts 328°
2026-04-27 12:13 33.94234 121.27668 35119 ft 414 kts 328°
2026-04-27 12:14 33.99587 121.25121 35123 ft 414 kts 328°
2026-04-27 12:14 34.04942 121.22573 35124 ft 414 kts 328°
2026-04-27 12:15 34.10258 121.20043 35123 ft 413 kts 328°
2026-04-27 12:15 34.15643 121.17472 35125 ft 413 kts 328°
2026-04-27 12:16 34.20991 121.14916 35132 ft 413 kts 328°
2026-04-27 12:16 34.26334 121.12361 35134 ft 413 kts 328°
2026-04-27 12:17 34.31639 121.09819 35134 ft 413 kts 328°
2026-04-27 12:17 34.36973 121.07261 35139 ft 412 kts 328°
2026-04-27 12:18 34.42301 121.04698 35138 ft 412 kts 328°
2026-04-27 12:18 34.47629 121.02136 35138 ft 411 kts 328°
2026-04-27 12:19 34.52944 120.99575 35141 ft 411 kts 328°
2026-04-27 12:19 34.58254 120.97011 35139 ft 411 kts 328°
2026-04-27 12:20 34.63560 120.94449 35139 ft 410 kts 328°
2026-04-27 12:20 34.68861 120.91881 35143 ft 410 kts 328°
2026-04-27 12:21 34.74158 120.89318 35148 ft 409 kts 328°
2026-04-27 12:21 34.79449 120.86754 35147 ft 409 kts 328°
2026-04-27 12:22 34.84735 120.84187 35150 ft 409 kts 327°
2026-04-27 12:22 34.90019 120.81619 35148 ft 409 kts 327°
2026-04-27 12:23 34.95294 120.79045 35152 ft 409 kts 327°
2026-04-27 12:23 35.00569 120.76468 35150 ft 408 kts 327°
2026-04-27 12:24 35.05836 120.73898 35153 ft 408 kts 327°
2026-04-27 12:24 35.11113 120.71321 35163 ft 408 kts 327°
2026-04-27 12:25 35.16379 120.68736 35159 ft 408 kts 327°
2026-04-27 12:25 35.21658 120.66173 35159 ft 408 kts 327°
2026-04-27 12:26 35.26945 120.63623 35162 ft 408 kts 327°
2026-04-27 12:26 35.32227 120.61063 35166 ft 408 kts 327°
2026-04-27 12:27 35.37496 120.58492 35163 ft 408 kts 326°
2026-04-27 12:27 35.42770 120.55924 35165 ft 408 kts 327°
2026-04-27 12:28 35.48049 120.53377 35170 ft 408 kts 326°
2026-04-27 12:28 35.53322 120.50819 35172 ft 407 kts 326°
2026-04-27 12:29 35.58595 120.48252 35168 ft 407 kts 326°
2026-04-27 12:29 35.63856 120.45683 35176 ft 407 kts 326°
2026-04-27 12:30 35.68226 120.43545 35167 ft 406 kts 326°
2026-04-27 12:30 35.73474 120.40975 35167 ft 406 kts 325°
2026-04-27 12:31 35.78712 120.38409 35169 ft 405 kts 325°
2026-04-27 12:31 35.83936 120.35843 35170 ft 404 kts 325°
2026-04-27 12:32 35.89155 120.33276 35161 ft 403 kts 325°
2026-04-27 12:32 35.95656 120.31404 35155 ft 447 kts 351°
2026-04-27 12:32 35.97779 120.31831 35159 ft 469 kts
2026-04-27 12:33 36.00834 120.33573 35151 ft 503 kts 24°
2026-04-27 12:33 36.03511 120.36512 35147 ft 522 kts 36°
2026-04-27 12:33 36.06024 120.39777 35131 ft 523 kts 35°
2026-04-27 12:34 36.11551 120.45272 35126 ft 495 kts 16°
2026-04-27 12:34 36.14618 120.47014 35131 ft 475 kts
2026-04-27 12:34 36.17745 120.48066 35135 ft 458 kts 356°
2026-04-27 12:34 36.20851 120.48567 35139 ft 444 kts 348°
2026-04-27 12:35 36.23913 120.48727 35141 ft 441 kts 348°
2026-04-27 12:35 36.30014 120.49073 35155 ft 442 kts 348°
2026-04-27 12:36 36.36159 120.49482 35162 ft 447 kts 352°
2026-04-27 12:36 36.39285 120.50209 35165 ft 467 kts
2026-04-27 12:36 36.42397 120.51561 35172 ft 477 kts
2026-04-27 12:37 36.48613 120.54471 35175 ft 477 kts
2026-04-27 12:37 36.51726 120.55811 35168 ft 466 kts
2026-04-27 12:37 36.54841 120.56583 35177 ft 449 kts 353°
2026-04-27 12:38 36.61034 120.57634 35177 ft 449 kts 353°
2026-04-27 12:38 36.67223 120.58689 35181 ft 449 kts 353°
2026-04-27 12:39 36.73408 120.59760 35178 ft 449 kts 353°
2026-04-27 12:39 36.79592 120.60836 35185 ft 448 kts 352°
2026-04-27 12:40 36.85764 120.61908 35186 ft 447 kts 352°
2026-04-27 12:40 36.91928 120.62981 35193 ft 447 kts 352°
2026-04-27 12:41 36.98077 120.64080 35194 ft 446 kts 353°
2026-04-27 12:41 37.04222 120.65243 35200 ft 446 kts 353°
2026-04-27 12:42 37.10342 120.66414 35203 ft 444 kts 353°
2026-04-27 12:42 37.16441 120.67562 35206 ft 442 kts 353°
2026-04-27 12:43 37.22520 120.68689 35203 ft 441 kts 352°
2026-04-27 12:43 37.28583 120.69814 35203 ft 440 kts 352°
2026-04-27 12:44 37.34638 120.70949 35205 ft 440 kts 352°
2026-04-27 12:44 37.40683 120.72087 35202 ft 439 kts 352°
2026-04-27 12:45 37.46732 120.73224 35202 ft 439 kts 352°
2026-04-27 12:45 37.52781 120.74368 35199 ft 439 kts 352°
2026-04-27 12:46 37.58791 120.75508 35201 ft 439 kts 352°
2026-04-27 12:46 37.64812 120.76375 35206 ft 433 kts 348°
2026-04-27 12:47 37.70807 120.76997 35202 ft 432 kts 348°
2026-04-27 12:47 37.76848 120.77631 35215 ft 434 kts 348°
2026-04-27 12:48 37.82827 120.78338 35217 ft 435 kts 349°
2026-04-27 12:48 37.88861 120.79084 35217 ft 436 kts 349°
2026-04-27 12:49 37.94897 120.79818 35217 ft 436 kts 349°
2026-04-27 12:49 38.00988 120.81191 35215 ft 467 kts
2026-04-27 12:49 38.04013 120.82980 35204 ft 492 kts 15°
2026-04-27 12:50 38.06966 120.85207 35204 ft 494 kts 16°
2026-04-27 12:50 38.12871 120.89686 35200 ft 495 kts 16°
2026-04-27 12:51 38.18785 120.94159 35198 ft 495 kts 16°
2026-04-27 12:51 38.21675 120.96655 35192 ft 513 kts 26°
2026-04-27 12:51 38.24312 120.99837 35187 ft 533 kts 37°
2026-04-27 12:51 38.26546 121.03697 35179 ft 551 kts 50°
2026-04-27 12:52 38.28269 121.08120 35172 ft 562 kts 59°
2026-04-27 12:52 38.31414 121.17243 35159 ft 563 kts 58°
2026-04-27 12:53 38.36170 121.30938 35160 ft 564 kts 58°
2026-04-27 12:53 38.39337 121.40091 35164 ft 565 kts 59°
2026-04-27 12:54 38.42532 121.49231 35163 ft 562 kts 57°
2026-04-27 12:54 38.46001 121.58051 35162 ft 558 kts 53°
2026-04-27 12:55 38.49679 121.66837 35155 ft 557 kts 53°
2026-04-27 12:55 38.53249 121.75554 35153 ft 558 kts 54°
2026-04-27 12:56 38.56768 121.84456 35153 ft 558 kts 55°
2026-04-27 12:56 38.60215 121.93267 35152 ft 557 kts 55°
2026-04-27 12:57 38.63689 122.02108 35148 ft 556 kts 55°
2026-04-27 12:57 38.67342 122.10758 35144 ft 544 kts 46°
2026-04-27 12:58 38.69621 122.14537 35143 ft 530 kts 37°
2026-04-27 12:58 38.72201 122.17829 35143 ft 516 kts 28°
2026-04-27 12:58 38.75001 122.20587 35141 ft 500 kts 20°
2026-04-27 12:58 38.77928 122.22911 35143 ft 494 kts 18°
2026-04-27 12:59 38.83794 122.27518 35144 ft 494 kts 18°
2026-04-27 12:59 38.89648 122.32152 35146 ft 494 kts 18°
2026-04-27 13:00 38.95495 122.36799 35138 ft 494 kts 18°
2026-04-27 13:00 39.01338 122.41441 35139 ft 493 kts 18°
2026-04-27 13:01 39.07173 122.46076 35130 ft 493 kts 18°
2026-04-27 13:01 39.13006 122.50729 35132 ft 493 kts 19°
2026-04-27 13:02 39.18832 122.55388 35141 ft 493 kts 19°
2026-04-27 13:02 39.24653 122.60049 35136 ft 492 kts 19°
2026-04-27 13:03 39.30506 122.64588 35128 ft 488 kts 17°
2026-04-27 13:03 39.36436 122.68755 35122 ft 484 kts 15°
2026-04-27 13:04 39.42379 122.72848 35117 ft 484 kts 16°
2026-04-27 13:04 39.48296 122.77042 35121 ft 485 kts 17°
2026-04-27 13:05 39.54199 122.81306 35122 ft 485 kts 18°
2026-04-27 13:05 39.60097 122.85565 35119 ft 485 kts 18°
2026-04-27 13:06 39.65996 122.89803 35126 ft 485 kts 18°
2026-04-27 13:06 39.71856 122.94014 35121 ft 485 kts 18°
2026-04-27 13:07 39.77753 122.98275 35121 ft 485 kts 18°
2026-04-27 13:07 39.83680 123.02565 35118 ft 484 kts 18°
2026-04-27 13:08 39.89561 123.06831 35119 ft 484 kts 19°
2026-04-27 13:08 39.95403 123.11074 35129 ft 484 kts 19°
2026-04-27 13:09 40.01280 123.15355 35124 ft 484 kts 19°
2026-04-27 13:09 40.07165 123.19642 35123 ft 484 kts 19°
2026-04-27 13:10 40.13066 123.23886 35122 ft 484 kts 19°
2026-04-27 13:10 40.18968 123.28114 35124 ft 484 kts 19°
2026-04-27 13:11 40.24860 123.32363 35121 ft 484 kts 19°
2026-04-27 13:11 40.30756 123.36645 35118 ft 484 kts 19°
2026-04-27 13:12 40.36646 123.40929 35125 ft 484 kts 20°
2026-04-27 13:12 40.42543 123.45215 35124 ft 484 kts 20°
2026-04-27 13:13 40.48431 123.49505 35126 ft 484 kts 20°
2026-04-27 13:13 40.54320 123.53799 35128 ft 484 kts 20°
2026-04-27 13:14 40.60206 123.58099 35123 ft 484 kts 20°
2026-04-27 13:14 40.66098 123.62413 35124 ft 484 kts 21°
2026-04-27 13:15 40.71977 123.66728 35131 ft 484 kts 21°
2026-04-27 13:15 40.77858 123.71057 35136 ft 484 kts 21°
2026-04-27 13:16 40.82785 123.74686 35140 ft 484 kts 21°
2026-04-27 13:16 40.89636 123.79644 35138 ft 483 kts 21°
2026-04-27 13:17 40.95557 123.83835 35138 ft 482 kts 21°
2026-04-27 13:17 41.01469 123.88033 35140 ft 482 kts 21°
2026-04-27 13:18 41.07372 123.92273 35144 ft 483 kts 22°
2026-04-27 13:18 41.13272 123.96524 35151 ft 482 kts 22°
2026-04-27 13:19 41.18210 124.00082 35153 ft 482 kts 22°
2026-04-27 13:19 41.24105 124.04333 35152 ft 482 kts 22°
2026-04-27 13:20 41.29993 124.08586 35156 ft 482 kts 22°
2026-04-27 13:20 41.35840 124.12824 35158 ft 482 kts 22°
2026-04-27 13:21 41.41719 124.17098 35160 ft 481 kts 23°
2026-04-27 13:21 41.47569 124.21455 35163 ft 482 kts 24°
2026-04-27 13:22 41.53395 124.25882 35172 ft 482 kts 24°
2026-04-27 13:22 41.59220 124.30304 35168 ft 481 kts 24°
2026-04-27 13:23 41.65049 124.34705 35167 ft 481 kts 24°
2026-04-27 13:23 41.70876 124.39113 35167 ft 481 kts 24°
2026-04-27 13:24 41.76694 124.43514 35164 ft 480 kts 24°
2026-04-27 13:24 41.82503 124.47932 35165 ft 480 kts 25°
2026-04-27 13:25 41.88301 124.52363 35162 ft 480 kts 25°
2026-04-27 13:25 41.94093 124.56799 35155 ft 479 kts 25°
2026-04-27 13:26 41.99891 124.61201 35159 ft 478 kts 24°
2026-04-27 13:26 42.05786 124.65291 35159 ft 476 kts 21°
2026-04-27 13:27 42.11724 124.69218 35156 ft 475 kts 21°
2026-04-27 13:27 42.17641 124.73206 35154 ft 475 kts 22°
2026-04-27 13:28 42.23529 124.77271 35154 ft 475 kts 23°
2026-04-27 13:28 42.29407 124.81354 35152 ft 475 kts 23°
2026-04-27 13:29 42.35283 124.85425 35161 ft 474 kts 23°
2026-04-27 13:29 42.41157 124.89492 35160 ft 474 kts 23°
2026-04-27 13:30 42.47024 124.93573 35163 ft 474 kts 24°
2026-04-27 13:30 42.52894 124.97659 35164 ft 474 kts 24°
2026-04-27 13:31 42.58753 125.01743 35164 ft 473 kts 24°
2026-04-27 13:31 42.64600 125.05824 35164 ft 473 kts 24°
2026-04-27 13:32 42.70410 125.09884 35162 ft 472 kts 24°
2026-04-27 13:32 42.76246 125.13973 35167 ft 472 kts 24°
2026-04-27 13:33 42.77782 125.15053 35166 ft 472 kts 24°
2026-04-27 13:52 42.78953 125.15854 35154 ft 471 kts 24°
2026-04-27 13:52 42.84786 125.19916 35156 ft 471 kts 24°
2026-04-27 13:53 42.93477 125.25996 35156 ft 469 kts 24°
2026-04-27 13:54 42.99297 125.30036 35156 ft 469 kts 24°
2026-04-27 13:54 43.05112 125.34080 35158 ft 469 kts 24°
2026-04-27 13:55 43.10918 125.38136 35158 ft 468 kts 24°
2026-04-27 13:55 43.16715 125.42198 35160 ft 468 kts 24°
2026-04-27 13:56 43.22512 125.46266 35156 ft 468 kts 24°
2026-04-27 13:56 43.28302 125.50332 35162 ft 468 kts 25°
2026-04-27 13:57 43.34092 125.54410 35163 ft 467 kts 25°
2026-04-27 13:57 43.39872 125.58486 35167 ft 467 kts 25°
2026-04-27 13:58 43.45647 125.62576 35163 ft 467 kts 25°
2026-04-27 13:58 43.51419 125.66668 35167 ft 466 kts 25°
2026-04-27 13:59 43.57170 125.70761 35169 ft 466 kts 25°
2026-04-27 13:59 43.62934 125.74872 35171 ft 465 kts 25°
2026-04-27 14:00 43.68681 125.78978 35176 ft 465 kts 25°
2026-04-27 14:00 43.74415 125.83078 35179 ft 464 kts 24°
2026-04-27 14:01 43.80487 125.85828 35176 ft 458 kts
2026-04-27 14:01 43.86787 125.87109 35171 ft 457 kts
2026-04-27 14:02 43.91990 125.88391 35168 ft 459 kts 14°
2026-04-27 14:02 43.95004 125.89890 34777 ft 463 kts 24°
2026-04-27 14:02 43.97798 125.92078 34242 ft 461 kts 34°
2026-04-27 14:02 44.00323 125.94811 33640 ft 460 kts 39°
2026-04-27 14:03 44.02810 125.97620 32995 ft 461 kts 38°
2026-04-27 14:03 44.05386 126.00273 32382 ft 462 kts 31°
2026-04-27 14:03 44.08222 126.02375 31769 ft 463 kts 22°
2026-04-27 14:03 44.11263 126.03870 31176 ft 464 kts 13°
2026-04-27 14:04 44.14428 126.04754 30592 ft 465 kts
2026-04-27 14:04 44.18669 126.05683 29779 ft 467 kts
2026-04-27 14:04 44.20838 126.06164 29329 ft 467 kts
2026-04-27 14:04 44.25078 126.07106 28458 ft 464 kts
2026-04-27 14:05 44.27221 126.07583 28031 ft 461 kts
2026-04-27 14:05 44.30372 126.08286 27405 ft 455 kts
2026-04-27 14:05 44.33480 126.08979 26789 ft 450 kts
2026-04-27 14:05 44.36553 126.09659 26196 ft 445 kts
2026-04-27 14:06 44.39591 126.10331 25611 ft 440 kts
2026-04-27 14:06 44.42604 126.10995 25036 ft 436 kts
2026-04-27 14:06 44.45580 126.11649 24469 ft 432 kts
2026-04-27 14:06 44.48538 126.12297 23923 ft 428 kts
2026-04-27 14:07 44.51469 126.12939 23320 ft 425 kts
2026-04-27 14:07 44.54371 126.13583 22683 ft 419 kts
2026-04-27 14:07 44.57234 126.14223 22063 ft 414 kts
2026-04-27 14:07 44.60057 126.14859 21444 ft 409 kts
2026-04-27 14:08 44.62850 126.15489 20843 ft 404 kts
2026-04-27 14:08 44.65610 126.16112 20252 ft 400 kts
2026-04-27 14:08 44.68346 126.16726 19678 ft 397 kts
2026-04-27 14:08 44.71027 126.17328 19114 ft 394 kts
2026-04-27 14:09 44.73741 126.17703 18558 ft 391 kts
2026-04-27 14:09 44.76445 126.17946 17952 ft 389 kts
2026-04-27 14:09 44.79137 126.18189 17327 ft 386 kts
2026-04-27 14:09 44.81812 126.18431 16710 ft 384 kts
2026-04-27 14:10 44.84462 126.18672 16102 ft 381 kts
2026-04-27 14:10 44.87097 126.18912 15516 ft 377 kts
2026-04-27 14:10 44.89705 126.19147 14933 ft 374 kts
2026-04-27 14:10 44.92286 126.19378 14353 ft 370 kts
2026-04-27 14:11 44.94839 126.19608 13801 ft 365 kts
2026-04-27 14:11 44.97362 126.19842 13160 ft 361 kts
2026-04-27 14:11 44.99851 126.20071 12546 ft 356 kts
2026-04-27 14:11 45.02308 126.19929 11971 ft 353 kts 351°
2026-04-27 14:12 45.04619 126.18839 11452 ft 350 kts 334°
2026-04-27 14:12 45.06612 126.16891 10936 ft 348 kts 318°
2026-04-27 14:12 45.08131 126.14243 10432 ft 347 kts 302°
2026-04-27 14:12 45.09035 126.11151 10297 ft 333 kts 287°
2026-04-27 14:13 45.09649 126.08082 10266 ft 316 kts 288°
2026-04-27 14:13 45.10247 126.05166 10243 ft 301 kts 288°
2026-04-27 14:13 45.10820 126.02386 10215 ft 289 kts 288°
2026-04-27 14:13 45.11380 125.99671 10036 ft 286 kts 288°
2026-04-27 14:14 45.11930 125.96981 9709 ft 283 kts 288°
2026-04-27 14:14 45.12472 125.94311 9356 ft 282 kts 288°
2026-04-27 14:14 45.13012 125.91651 8994 ft 280 kts 288°
2026-04-27 14:14 45.13562 125.89012 8644 ft 279 kts 291°
2026-04-27 14:15 45.14340 125.86521 8290 ft 275 kts 302°
2026-04-27 14:15 45.15399 125.84285 7944 ft 272 kts 311°
2026-04-27 14:15 45.16598 125.82219 7599 ft 271 kts 312°
2026-04-27 14:15 45.17910 125.80344 7266 ft 266 kts 329°
2026-04-27 14:16 45.19583 125.79366 6971 ft 258 kts 353°
2026-04-27 14:16 45.21347 125.79460 6910 ft 250 kts 15°
2026-04-27 14:16 45.22868 125.80461 6914 ft 235 kts 37°
2026-04-27 14:16 45.24105 125.81868 6917 ft 221 kts 38°
2026-04-27 14:17 45.25264 125.83201 6917 ft 210 kts 38°
2026-04-27 14:17 45.26395 125.84503 6921 ft 209 kts 38°
2026-04-27 14:17 45.27524 125.85801 6822 ft 208 kts 38°
2026-04-27 14:17 45.28644 125.87089 6519 ft 207 kts 38°
2026-04-27 14:18 45.29755 125.88371 6214 ft 205 kts 39°
2026-04-27 14:18 45.30859 125.89645 5968 ft 202 kts 38°
2026-04-27 14:18 45.31952 125.90907 5921 ft 204 kts 39°
2026-04-27 14:18 45.33056 125.92182 5927 ft 205 kts 39°
2026-04-27 14:19 45.34159 125.93472 5860 ft 207 kts 39°
2026-04-27 14:19 45.35272 125.94788 5489 ft 209 kts 39°
2026-04-27 14:19 45.36404 125.96106 5135 ft 212 kts 38°
2026-04-27 14:19 45.37554 125.97436 4754 ft 215 kts 38°
2026-04-27 14:20 45.38697 125.98759 4362 ft 213 kts 38°
2026-04-27 14:20 45.39842 126.00084 4017 ft 205 kts 38°
2026-04-27 14:20 45.40891 126.01300 3968 ft 191 kts 38°
2026-04-27 14:20 45.41893 126.02461 3950 ft 175 kts 38°
2026-04-27 14:21 45.42796 126.03508 3889 ft 166 kts 38°
2026-04-27 14:21 45.43686 126.04540 3809 ft 165 kts 38°
2026-04-27 14:21 45.44572 126.05566 3735 ft 164 kts 38°
2026-04-27 14:21 45.45458 126.06595 3639 ft 164 kts 38°
2026-04-27 14:22 45.46344 126.07623 3463 ft 164 kts 38°
2026-04-27 14:22 45.47224 126.08646 3250 ft 163 kts 38°
2026-04-27 14:22 45.48103 126.09667 3018 ft 163 kts 38°
2026-04-27 14:22 45.48955 126.10658 2834 ft 155 kts 38°
2026-04-27 14:23 45.49784 126.11622 2598 ft 153 kts 38°
2026-04-27 14:23 45.50587 126.12557 2394 ft 141 kts 38°
2026-04-27 14:23 45.51323 126.13414 2206 ft 134 kts 37°
2026-04-27 14:23 45.52036 126.14243 2028 ft 131 kts 37°
2026-04-27 14:24 45.52740 126.15063 1843 ft 130 kts 37°
2026-04-27 14:24 45.53439 126.15877 1665 ft 130 kts 38°
2026-04-27 14:24 45.54138 126.16692 1484 ft 130 kts 37°
2026-04-27 14:24 45.54838 126.17508 1291 ft 130 kts 38°
2026-04-27 14:25 45.55551 126.18318 1115 ft 132 kts 37°
2026-04-27 14:25 45.56261 126.19151 928 ft 132 kts 39°
2026-04-27 14:25 45.56970 126.19989 737 ft 133 kts 39°
2026-04-27 14:25 45.57686 126.20818 586 ft 133 kts 38°
2026-04-27 14:26 45.58378 126.21641 503 ft 118 kts 39°
2026-04-27 14:26 45.58894 126.22239 490 ft 71 kts 39°
2026-04-27 14:26 45.59147 126.22535 480 ft 30 kts 39°
2026-04-27 14:26 45.59286 126.22619 485 ft 16 kts 17°
2026-04-27 14:27 45.59404 126.22669 481 ft 19 kts 15°
2026-04-27 14:27 45.59541 126.22730 479 ft 16 kts 25°
2026-04-27 14:27 45.59641 126.22837 476 ft 20 kts 40°
2026-04-27 14:27 45.59760 126.22977 479 ft 24 kts 39°
2026-04-27 14:28 45.59892 126.23132 475 ft 21 kts 40°
2026-04-27 14:28 45.60015 126.23276 472 ft 25 kts 39°
2026-04-27 14:28 45.60126 126.23406 472 ft 18 kts 39°
2026-04-27 14:28 45.60233 126.23532 473 ft 22 kts 39°
2026-04-27 14:29 45.60297 126.23523 470 ft 12 kts 313°
2026-04-27 14:29 45.60357 126.23421 469 ft 15 kts 310°
2026-04-27 14:29 45.60435 126.23288 471 ft 19 kts 310°
2026-04-27 14:29 45.60530 126.23127 468 ft 23 kts 310°
2026-04-27 14:30 45.60626 126.22963 468 ft 18 kts 310°
2026-04-27 14:30 45.60703 126.22834 469 ft 8 kts 313°
2026-04-27 14:30 45.60760 126.22849 467 ft 11 kts 39°
2026-04-27 14:30 45.60831 126.22933 465 ft 15 kts 39°
2026-04-27 14:31 45.60922 126.23041 466 ft 19 kts 39°
2026-04-27 14:31 45.61033 126.23172 467 ft 22 kts 39°
2026-04-27 14:31 45.61162 126.23323 465 ft 26 kts 39°
2026-04-27 14:31 45.61281 126.23459 466 ft 10 kts 39°
2026-04-27 14:32 45.61349 126.23440 465 ft 13 kts 313°
2026-04-27 14:32 45.61413 126.23327 466 ft 16 kts 309°
2026-04-27 14:32 45.61492 126.23191 465 ft 17 kts 309°
2026-04-27 14:32 45.61543 126.23176 464 ft 7 kts 30°
2026-04-27 14:33 45.61571 126.23208 465 ft 6 kts 39°
2026-04-27 14:33 45.61574 126.23212 465 ft 0 kts 39°